Hourly Weather Allmersbach

Today, 6 March, Saturday

Time Temperature Precipitation Wind Pressure Humidity
00:00 -2°C° 0 mm 3 mps 739 mmHg 77%
01:00 -2°C° 0 mm 3 mps 739 mmHg 78%
02:00 -2°C° 0 mm 3 mps 739 mmHg 77%
03:00 -2°C° 0 mm 3 mps 739 mmHg 76%
04:00 -2°C° 0 mm 3 mps 739 mmHg 74%
05:00 -4°C° 0 mm 3 mps 739 mmHg 73%
06:00 -4°C° 0 mm 3 mps 739 mmHg 73%
07:00 -4°C° 0 mm 3 mps 739 mmHg 72%
08:00 -1°C° 0 mm 3 mps 739 mmHg 64%
09:00 -1°C° 0 mm 4 mps 739 mmHg 56%
10:00 0°C° 0 mm 4 mps 739 mmHg 49%
11:00 +1°C° 0 mm 4 mps 739 mmHg 45%
12:00 +3°C° 0 mm 4 mps 739 mmHg 41%
13:00 +5°C° 0 mm 4 mps 739 mmHg 38%
14:00 +5°C° 0 mm 4 mps 738 mmHg 38%
15:00 +5°C° 0 mm 3 mps 738 mmHg 39%
16:00 +5°C° 0 mm 3 mps 738 mmHg 39%
17:00 +3°C° 0 mm 3 mps 737 mmHg 45%
18:00 +3°C° 0 mm 2 mps 737 mmHg 51%
19:00 +1°C° 0 mm 2 mps 737 mmHg 57%
20:00 +1°C° 0 mm 2 mps 737 mmHg 58%
21:00 +1°C° 0 mm 1 mps 737 mmHg 59%
22:00 +1°C° 0 mm 1 mps 737 mmHg 60%
23:00 0°C° 0 mm 1 mps 737 mmHg 59%

Tomorrow, 7 March, Sunday

Time Temperature Precipitation Wind Pressure Humidity
00:00 0°C° 0 mm 1 mps 737 mmHg 59%
01:00 0°C° 0 mm 1 mps 737 mmHg 59%
02:00 0°C° 0 mm 1 mps 736 mmHg 59%
03:00 0°C° 0 mm 1 mps 736 mmHg 59%
04:00 -1°C° 0 mm 1 mps 735 mmHg 59%
05:00 -1°C° 0 mm 1 mps 735 mmHg 59%
06:00 -1°C° 0 mm 1 mps 735 mmHg 60%
07:00 -1°C° 0 mm 1 mps 735 mmHg 60%
08:00 +1°C° 0 mm 1 mps 735 mmHg 55%
09:00 +3°C° 0 mm 1 mps 735 mmHg 49%
10:00 +5°C° 0 mm 1 mps 734 mmHg 44%
11:00 +6°C° 0 mm 1 mps 734 mmHg 43%
12:00 +8°C° 0 mm 1 mps 734 mmHg 42%
13:00 +9°C° 0 mm 1 mps 734 mmHg 41%
14:00 +9°C° 0 mm 1 mps 733 mmHg 43%
15:00 +9°C° 0 mm 1 mps 732 mmHg 45%
16:00 +9°C° 0 mm 1 mps 732 mmHg 46%
17:00 +7°C° 0 mm 1 mps 732 mmHg 52%
18:00 +5°C° 0 mm 1 mps 732 mmHg 58%
19:00 +3°C° 0 mm 1 mps 732 mmHg 64%
20:00 +2°C° 0 mm 1 mps 732 mmHg 65%
21:00 +1°C° 0 mm 0 mps 732 mmHg 65%
22:00 0°C° 0 mm 0 mps 732 mmHg 66%
23:00 0°C° 0 mm 0 mps 732 mmHg 66%

Day after tomorrow, 8 March, Monday

Time Temperature Precipitation Wind Pressure Humidity
00:00 0°C° 0 mm 0 mps 732 mmHg 66%
01:00 -1°C° 0 mm 0 mps 732 mmHg 66%
02:00 -1°C° 0 mm 0 mps 732 mmHg 67%
03:00 -1°C° 0 mm 0 mps 732 mmHg 68%
04:00 -1°C° 0 mm 0 mps 732 mmHg 69%
05:00 -2°C° 0 mm 0 mps 732 mmHg 71%
06:00 -2°C° 0 mm 0 mps 732 mmHg 74%
07:00 -2°C° 0 mm 0 mps 732 mmHg 76%
08:00 0°C° 0 mm 0 mps 733 mmHg 70%
09:00 +2°C° 0 mm 0 mps 733 mmHg 63%
10:00 +5°C° 0 mm 1 mps 733 mmHg 57%
11:00 +6°C° 0 mm 1 mps 733 mmHg 53%
12:00 +7°C° 0 mm 1 mps 733 mmHg 50%
13:00 +8°C° 0 mm 1 mps 733 mmHg 46%
14:00 +8°C° 0 mm 1 mps 732 mmHg 47%
15:00 +8°C° 0 mm 1 mps 732 mmHg 47%
16:00 +8°C° 0 mm 1 mps 731 mmHg 48%
17:00 +6°C° 0 mm 1 mps 731 mmHg 56%
18:00 +5°C° 0 mm 1 mps 731 mmHg 63%
19:00 +2°C° 0 mm 2 mps 731 mmHg 71%
20:00 +3°C° 0 mm 1 mps 731 mmHg 73%
21:00 +3°C° 0 mm 1 mps 731 mmHg 74%
22:00 +2°C° 0 mm 1 mps 731 mmHg 76%
23:00 +2°C° 0 mm 1 mps 731 mmHg 76%

9 March, Tuesday

Time Temperature Precipitation Wind Pressure Humidity
00:00 +2°C° 0 mm 1 mps 731 mmHg 76%
01:00 +2°C° 0 mm 1 mps 731 mmHg 76%
02:00 +1°C° 0 mm 0 mps 731 mmHg 76%
03:00 +1°C° 0 mm 0 mps 731 mmHg 75%
04:00 +1°C° 0 mm 0 mps 730 mmHg 75%
05:00 +1°C° 0 mm 0 mps 730 mmHg 76%
06:00 +1°C° 0 mm 0 mps 731 mmHg 78%
07:00 +1°C° 0 mm 0 mps 731 mmHg 79%
08:00 +1°C° 0.1 mm 0 mps 731 mmHg 83%
09:00 +3°C° 0.1 mm 1 mps 731 mmHg 87%
10:00 +3°C° 0.1 mm 1 mps 732 mmHg 90%
11:00 +3°C° 0.1 mm 1 mps 732 mmHg 91%
12:00 +3°C° 0.1 mm 1 mps 732 mmHg 91%
13:00 +3°C° 0.1 mm 1 mps 732 mmHg 91%
14:00 +3°C° 0 mm 1 mps 732 mmHg 90%
15:00 +4°C° 0 mm 1 mps 732 mmHg 88%
16:00 +4°C° 0 mm 1 mps 732 mmHg 86%
17:00 +3°C° 0 mm 1 mps 732 mmHg 87%
18:00 +3°C° 0 mm 1 mps 733 mmHg 88%
19:00 +2°C° 0 mm 0 mps 733 mmHg 89%
20:00 +2°C° 0 mm 1 mps 733 mmHg 90%
21:00 +2°C° 0 mm 1 mps 733 mmHg 90%
22:00 +1°C° 0 mm 1 mps 734 mmHg 90%
23:00 +1°C° 0 mm 1 mps 734 mmHg 90%

10 March, Wednesday

Time Temperature Precipitation Wind Pressure Humidity
00:00 +1°C° 0 mm 1 mps 733 mmHg 91%
01:00 0°C° 0 mm 1 mps 733 mmHg 91%
02:00 0°C° 0 mm 1 mps 733 mmHg 91%
03:00 0°C° 0 mm 1 mps 733 mmHg 91%
04:00 0°C° 0 mm 1 mps 733 mmHg 91%
05:00 0°C° 0 mm 1 mps 733 mmHg 91%
06:00 0°C° 0 mm 1 mps 733 mmHg 91%
07:00 0°C° 0 mm 1 mps 733 mmHg 91%
08:00 +2°C° 0 mm 1 mps 733 mmHg 83%
09:00 +4°C° 0 mm 1 mps 733 mmHg 76%
10:00 +5°C° 0 mm 2 mps 733 mmHg 69%
11:00 +6°C° 0 mm 2 mps 733 mmHg 64%
12:00 +7°C° 0 mm 2 mps 732 mmHg 59%
13:00 +9°C° 0 mm 3 mps 732 mmHg 54%
14:00 +9°C° 0 mm 3 mps 731 mmHg 54%
15:00 +9°C° 0 mm 3 mps 731 mmHg 55%
16:00 +9°C° 0 mm 3 mps 730 mmHg 55%
17:00 +8°C° 0 mm 2 mps 730 mmHg 58%
18:00 +7°C° 0 mm 2 mps 730 mmHg 61%
19:00 +6°C° 0 mm 2 mps 730 mmHg 64%
20:00 +5°C° 0.1 mm 3 mps 730 mmHg 64%
21:00 +5°C° 0.1 mm 3 mps 730 mmHg 63%
22:00 +5°C° 0.1 mm 4 mps 730 mmHg 63%
23:00 +5°C° 0.3 mm 4 mps 730 mmHg 69%

11 March, Thursday

Time Temperature Precipitation Wind Pressure Humidity
00:00 +5°C° 0.3 mm 4 mps 729 mmHg 74%
01:00 +5°C° 0.3 mm 5 mps 729 mmHg 79%
02:00 +5°C° 0.3 mm 5 mps 728 mmHg 79%
03:00 +5°C° 0.3 mm 5 mps 728 mmHg 79%
04:00 +6°C° 0.3 mm 5 mps 727 mmHg 79%
05:00 +6°C° 0 mm 5 mps 727 mmHg 76%
06:00 +6°C° 0 mm 5 mps 727 mmHg 74%
07:00 +6°C° 0 mm 5 mps 726 mmHg 71%
08:00 +7°C° 0 mm 6 mps 726 mmHg 69%
09:00 +8°C° 0 mm 6 mps 726 mmHg 68%
10:00 +9°C° 0 mm 7 mps 726 mmHg 66%
11:00 +9°C° 0 mm 8 mps 725 mmHg 65%
12:00 +10°C° 0 mm 8 mps 725 mmHg 65%
13:00 +11°C° 0 mm 9 mps 725 mmHg 65%
14:00 +10°C° 0.1 mm 9 mps 724 mmHg 68%
15:00 +10°C° 0.1 mm 9 mps 724 mmHg 70%
16:00 +10°C° 0.1 mm 9 mps 724 mmHg 73%
17:00 +9°C° 0.4 mm 8 mps 725 mmHg 75%
18:00 +7°C° 0.4 mm 8 mps 725 mmHg 76%
19:00 +6°C° 0.4 mm 8 mps 726 mmHg 77%
20:00 +5°C° 0.1 mm 7 mps 726 mmHg 78%
21:00 +5°C° 0.1 mm 6 mps 727 mmHg 80%
22:00 +4°C° 0.1 mm 6 mps 728 mmHg 81%
23:00 +4°C° 0 mm 6 mps 728 mmHg 81%
Show more